Tracking 29892 objects as of 21-Nov-2024
HD Live streaming from Space Station
objects crossing your sky now

RISAT-2BR1

Track RISAT-2BR1 now!
10-day predictions


NORAD ID: 44857
Int'l Code: 2019-089F
Perigee: 564.0 km
Apogee: 582.7 km
Inclination: 37.0 °
Period: 96.0 minutes
Semi major axis: 6944 km
RCS: Unknown
Launch date: December 11, 2019
Source: India (IND)
Launch site: SRIHARIKOTA (SRI)
Your satellite tracking list
Your tracking list is empty




NASA's NSSDC Master Catalog

Two Line Element Set (TLE):
1 44857U 19089F   24326.16908890  .00008956  00000-0  70656-3 0  9998
2 44857  36.9609 268.9739 0013511 220.7805 139.1926 15.00224154271096
Source of the keplerian elements: AFSPC